Weather History for Winslow, AZ

Change the Weather History Date:

Monday, November 19, 2012

  Actual Average Record
Temperature  
Mean Temperature 46 °F 42 °F  
Max Temperature 63 °F 58 °F 80 °F (2007)
Min Temperature 29 °F 27 °F 11 °F (2000)
Degree Days  
Heating Degree Days 19 23  
Month to date heating degree days 341 355  
Since 1 July heating degree days 565 661  
Cooling Degree Days 0 0  
Month to date cooling degree days 0 0  
Year to date cooling degree days 1442 1208  
Moisture  
Dew Point 25 °F    
Average Humidity 52    
Maximum Humidity 85    
Minimum Humidity 19    
Precipitation  
Precipitation 0.00 in 0.01 in 0.46 in (1973)
Month to date precipitation 0.27 0.32  
Year to date precipitation 5.14 6.26  
Sea Level Pressure  
Sea Level Pressure 30.27 in    
Wind  
Wind Speed 4 mph (SE)    
Max Wind Speed 12 mph    
Max Gust Speed 13 mph    
Visibility 10 miles    
Events      
T = Trace of Precipitation, MM = Missing Value Source: NWS Daily Summary

Daily Weather History Graph

Daily Weather History Graph

Search for Another Location

Airport:

Trip Planner

Search our weather history database for the weather conditions in past years. The results will help you decide how hot, cold, wet, or windy it might be!

Date:

Astronomy

Nov. 19, 2012 Rise Set
Actual Time 7:01 AM MST 5:14 PM MST
Civil Twilight 6:34 AM MST 5:41 PM MST
Nautical Twilight 6:03 AM MST 6:12 PM MST
Astronomical Twilight 5:33 AM MST 6:42 PM MST
Moon 12:11 PM MST (11/19) 11:39 PM MST (11/19)
Length of Visible Light 11h 07m
Length of Day
10h 12m
Waxing Crescent, 41% of the Moon is Illuminated
Nov 19
Waxing Crescent
Nov 20
First Quarter
Nov 28
Full
Dec 6
Last Quarter
Dec 13
New

Hourly Weather History & Observations

Time (MST) Temp. Windchill Dew Point Humidity Pressure Visibility Wind Dir Wind Speed Gust Speed Precip Events Conditions
12:56 AM 37.0 °F 34.5 °F 28.9 °F 73% 30.17 in 10.0 mi NE 3.5 mph - N/A   Clear
1:56 AM 32.0 °F - 26.1 °F 79% 30.20 in 10.0 mi Calm Calm - N/A   Clear
2:56 AM 32.0 °F - 26.1 °F 79% 30.21 in 10.0 mi Calm Calm - N/A   Clear
3:56 AM 34.0 °F - 28.0 °F 79% 30.20 in 10.0 mi Calm Calm - N/A   Clear
4:56 AM 30.2 °F 25.4 °F 26.6 °F 86% 30.27 in 10.0 mi SE 4.6 mph - N/A   Clear
5:56 AM 32.0 °F 27.5 °F 27.0 °F 82% 30.27 in 10.0 mi ESE 4.6 mph - N/A   Clear
6:56 AM 30.0 °F 25.2 °F 26.1 °F 85% 30.31 in 10.0 mi SSE 4.6 mph - N/A   Clear
7:56 AM 33.1 °F 27.7 °F 27.0 °F 78% 30.32 in 10.0 mi SE 5.8 mph - N/A   Clear
8:56 AM 39.0 °F 33.4 °F 28.9 °F 67% 30.34 in 10.0 mi East 8.1 mph - N/A   Clear
9:56 AM 46.0 °F 41.9 °F 30.0 °F 54% 30.32 in 10.0 mi ESE 8.1 mph - N/A   Clear
10:56 AM 51.8 °F - 30.2 °F 44% 30.36 in 10.0 mi ESE 4.6 mph - N/A   Clear
11:56 AM 55.9 °F - 32.0 °F 40% 30.28 in 10.0 mi SSE 4.6 mph - N/A   Clear
12:56 PM 59.0 °F - 32.0 °F 36% 30.25 in 10.0 mi Variable 3.5 mph - N/A   Clear
1:56 PM 61.0 °F - 27.0 °F 27% 30.23 in 10.0 mi South 3.5 mph - N/A   Clear
2:56 PM 62.1 °F - 24.1 °F 23% 30.22 in 10.0 mi Variable 4.6 mph - N/A   Clear
3:56 PM 63.0 °F - 21.0 °F 20% 30.20 in 10.0 mi East 6.9 mph - N/A   Clear
4:56 PM 60.1 °F - 17.1 °F 19% 30.22 in 10.0 mi ESE 8.1 mph - N/A   Clear
5:56 PM 55.9 °F - 21.0 °F 26% 30.24 in 10.0 mi East 4.6 mph - N/A   Clear
6:56 PM 48.0 °F - 19.9 °F 33% 30.29 in 10.0 mi SSE 3.5 mph - N/A   Clear
7:56 PM 41.0 °F 39.0 °F 19.0 °F 41% 30.32 in 10.0 mi South 3.5 mph - N/A   Clear
8:56 PM 37.9 °F - 19.0 °F 47% 30.32 in 10.0 mi Calm Calm - N/A   Clear
9:56 PM 42.1 °F 36.6 °F 23.0 °F 47% 30.30 in 10.0 mi South 9.2 mph - N/A   Clear
10:56 PM 37.0 °F - 21.9 °F 54% 30.31 in 10.0 mi Calm Calm - N/A   Clear
11:56 PM 32.0 °F 26.4 °F 19.9 °F 61% 30.31 in 10.0 mi South 5.8 mph - N/A   Clear